Weather History for Nueva Ocotepeque, Honduras

Change the Weather History Date:

Saturday, November 3, 2012

  Actual Average (MHTG) Record (MHTG)
Temperature  
Mean Temperature 72 °F -  
Max Temperature 79 °F 77 °F 83 °F (2013)
Min Temperature 65 °F 62 °F 57 °F (2001)
Cooling Degree Days 7    
Growing Degree Days 22 (Base 50)    
Moisture  
Dew Point 67 °F    
Average Humidity 83    
Maximum Humidity 100    
Minimum Humidity 60    
Precipitation  
Precipitation 0.00 in - - ()
Sea Level Pressure  
Sea Level Pressure 29.92 in    
Wind  
Wind Speed 10 mph ()    
Max Wind Speed 17 mph    
Max Gust Speed 22 mph    
Visibility 6.2 miles    
Events      
Averages and records for this station are not official NWS values.
T = Trace of Precipitation, MM = Missing Value Source: Averaged Metar Reports

Daily Weather History Graph

Daily Weather History Graph

Search for Another Location

Airport:

Trip Planner

Search our weather history database for the weather conditions in past years. The results will help you decide how hot, cold, wet, or windy it might be!

Date:

Astronomy

Nov. 03, 2012 Rise Set
Actual Time 5:46 AM CST 5:21 PM CST
Civil Twilight 5:24 AM CST 5:43 PM CST
Nautical Twilight 4:58 AM CST 6:08 PM CST
Astronomical Twilight 4:33 AM CST 6:34 PM CST
Moon 9:15 PM CST (11/3) 9:34 AM CST (11/3)
Length of Visible Light 12h 19m
Length of Day
11h 34m
Waning Gibbous, 80% of the Moon is Illuminated
Nov 3
Waning Gibbous
Nov 6
Last Quarter
Nov 13
New
Nov 20
First Quarter
Nov 28
Full

Hourly Weather History & Observations

Time (CST) Temp. Heat Index Dew Point Humidity Pressure Visibility Wind Dir Wind Speed Gust Speed Precip Events Conditions
12:55 AM 68.4 °F - 66.6 °F 94% 29.94 in 6.2 mi NNW 10.4 mph - N/A   Mostly Cloudy
1:19 AM 68.0 °F - 66.2 °F 94% 29.93 in 6.2 mi NNW 11.5 mph - N/A   Mostly Cloudy
1:45 AM 68.0 °F - 66.2 °F 94% 29.92 in 6.2 mi NNW 10.4 mph - N/A   Mostly Cloudy
1:55 AM 68.9 °F - 66.6 °F 92% 29.91 in 6.2 mi NNW 10.4 mph - N/A   Overcast
2:11 AM 69.8 °F - 66.2 °F 88% 29.91 in 6.2 mi North 11.5 mph - N/A   Overcast
2:27 AM 68.0 °F - 66.2 °F 94% 29.91 in 6.2 mi North 12.7 mph - N/A   Mostly Cloudy
2:55 AM 68.5 °F - 66.7 °F 94% 29.91 in 6.2 mi North 10.4 mph - N/A   Mostly Cloudy
3:55 AM 68.5 °F - 66.7 °F 94% 29.91 in 6.2 mi North 8.1 mph - N/A   Overcast
4:26 AM 68.0 °F - 66.2 °F 94% 29.92 in 6.2 mi NNW 5.8 mph - N/A   Mostly Cloudy
4:55 AM 67.3 °F - 66.9 °F 99% 29.93 in 6.2 mi NNW 8.1 mph - N/A   Mostly Cloudy
5:12 AM 68.0 °F - 68.0 °F 100% 29.94 in 6.2 mi North 8.1 mph - N/A   Overcast
5:19 AM 68.0 °F - 68.0 °F 100% 29.94 in 6.2 mi North 9.2 mph - N/A   Overcast
5:37 AM 68.0 °F - 66.2 °F 94% 29.94 in 6.2 mi North 11.5 mph - N/A   Overcast
5:55 AM 68.4 °F - 66.4 °F 93% 29.94 in 6.2 mi NNW 11.5 mph - N/A   Mostly Cloudy
6:00 AM 66 °F - 64 °F 90%  in 6 mi North 4.6 mph - -   Haze
6:55 AM 69.6 °F - 66.9 °F 91% 29.96 in 6.2 mi North 12.7 mph - N/A   Overcast
7:55 AM 73.6 °F - 66.9 °F 80% 29.96 in 6.2 mi North 16.1 mph - N/A   Overcast
8:55 AM 76.8 °F - 66.2 °F 70% 29.98 in 6.2 mi North 13.8 mph - N/A   Overcast
9:00 AM 75 °F - 67 °F 70%  in 6 mi NNW 6.9 mph - -   Haze
9:55 AM 79.3 °F - 66.4 °F 64% 29.97 in 6.2 mi North 16.1 mph - N/A   Mostly Cloudy
10:55 AM 80.8 °F 83.2 °F 67.3 °F 63% 29.94 in 6.2 mi NNW 11.5 mph - N/A   Clear
11:55 AM 81.7 °F 84.0 °F 66.6 °F 60% 29.91 in 6.2 mi NNW 10.4 mph - N/A   Overcast
12:00 PM 79 °F - 71 °F 70%  in 6 mi NNW 9.2 mph - -   Haze
12:55 PM 81.9 °F 84.4 °F 67.1 °F 61% 29.88 in 6.2 mi North 16.1 mph 21.9 mph N/A   Overcast
1:55 PM 81.5 °F 84.1 °F 67.3 °F 62% 29.86 in 6.2 mi NNW 17.3 mph - N/A   Overcast
2:55 PM 79.2 °F - 67.1 °F 66% 29.86 in 6.2 mi North 15.0 mph - N/A   Overcast
3:00 PM 78 °F - 70 °F 70%  in 6 mi North 9.2 mph - -   Haze
3:55 PM 79.0 °F - 67.5 °F 68% 29.86 in 6.2 mi North 13.8 mph - N/A   Overcast
4:55 PM 77.2 °F - 68.0 °F 73% 29.88 in 6.2 mi North 15.0 mph - N/A   Overcast
5:55 PM 74.7 °F - 67.5 °F 78% 29.91 in 6.2 mi North 15.0 mph - N/A   Overcast
6:00 PM 72 °F - 68 °F 85%  in 6 mi North 4.6 mph - -   Haze
6:55 PM 74.5 °F - 67.1 °F 78% 29.94 in 6.2 mi North 13.8 mph - N/A   Overcast
7:55 PM 73.8 °F - 67.8 °F 82% 29.95 in 6.2 mi NNW 13.8 mph - N/A   Overcast
8:55 PM 73.4 °F - 68.4 °F 84% 29.96 in 6.2 mi NNW 13.8 mph - N/A   Overcast
9:55 PM 72.1 °F - 68.4 °F 88% 29.96 in 6.2 mi NNW 10.4 mph - N/A   Overcast
10:55 PM 71.8 °F - 68.4 °F 89% 29.94 in 6.2 mi NW 10.4 mph - N/A   Overcast
11:55 PM 70.5 °F - 67.6 °F 91% 29.92 in 6.2 mi NW 8.1 mph - N/A   Mostly Cloudy